This is the latest recevied weather packets stored in our database for station/object KE0FIN. If no packets are shown the sender has not sent any weather packets the latest 10 day(s).
| Time | Temp. | Humidity | Pressure | Rain* | Wind** | Luminosity | Snow |
|---|---|---|---|---|---|---|---|
| 1777938706 | 27.22° C | 44% | 1052.4 hPa | 0 mm | - | 67 W/m² | - |
| 1777938404 | 27.22° C | 43% | 1052.4 hPa | 0 mm | - | 72 W/m² | - |
| 1777938101 | 27.78° C | 43% | 1052.5 hPa | 0 mm | - | 77 W/m² | - |
| 1777937797 | 27.78° C | 43% | 1052.3 hPa | 0 mm | - | 99 W/m² | - |
| 1777937493 | 27.78° C | 43% | 1052.5 hPa | 0 mm | - | 122 W/m² | - |
| 1777937191 | 27.78° C | 42% | 1052.5 hPa | 0 mm | - | 116 W/m² | - |
| 1777936887 | 28.33° C | 42% | 1052.4 hPa | 0 mm | - | 149 W/m² | - |
| 1777936584 | 28.89° C | 41% | 1052.5 hPa | 0 mm | - | 129 W/m² | - |
| 1777936280 | 28.89° C | 41% | 1052.2 hPa | 0 mm | - | 177 W/m² | - |
| 1777935976 | 28.33° C | 41% | 1052.6 hPa | 0 mm | - | 131 W/m² | - |
| 1777935676 | 28.89° C | 41% | 1052.4 hPa | 0 mm | - | 114 W/m² | - |
| 1777935373 | 28.89° C | 40% | 1052.4 hPa | 0 mm | - | 177 W/m² | - |
| 1777935069 | 29.44° C | 39% | 1052.5 hPa | 0 mm | - | 166 W/m² | - |
| 1777934766 | 29.44° C | 39% | 1052.4 hPa | 0 mm | - | 197 W/m² | - |
| 1777934463 | 30° C | 38% | 1052.5 hPa | 0 mm | - | 186 W/m² | - |
| 1777934160 | 30° C | 36% | 1052.5 hPa | 0 mm | - | 210 W/m² | - |
| 1777933855 | 30° C | 36% | 1052.2 hPa | 0 mm | - | 259 W/m² | - |
| 1777933553 | 30.56° C | 36% | 1052.3 hPa | 0 mm | - | 279 W/m² | - |
| 1777933250 | 30.56° C | 33% | 1052.1 hPa | 0 mm | - | 262 W/m² | - |
| 1777932947 | 31.11° C | 33% | 1052.2 hPa | 0 mm | - | 316 W/m² | - |
| 1777932644 | 30.56° C | 33% | 1052.4 hPa | 0 mm | - | 324 W/m² | - |
| 1777932340 | 30.56° C | 35% | 1052.2 hPa | 0 mm | - | 281 W/m² | - |
| 1777932037 | 31.11° C | 34% | 1052.3 hPa | 0 mm | - | 360 W/m² | - |
| 1777931734 | 31.67° C | 33% | 1052.4 hPa | 0 mm | - | 344 W/m² | - |
| 1777931432 | 31.11° C | 33% | 1052.4 hPa | 0 mm | - | 408 W/m² | - |
* Rain latest hour (hover to see other rain measurements)
** Current wind speed in m/s (hover to see current wind gust speed)